Zurück zum Katalog

FENGYUN 1C DEB

AktivSSO
NORAD 30708·DEBRIS·🇨🇳 China

Gestartet May 10, 1999 von Taiyuan Satellite Launch Center

Loading…

Nächste Überflüge (nächste 24 Stunden)

TLE

AktuellSource: Space-Track

Epoche: Sep 13, 2026, 23:33 UTC

1 30708U 99025ARS 26256.98192266  .00000129  00000-0  93197-4 0  9992
2 30708  98.6836 267.1363 0009145 132.2853 258.7676 14.12320234  6785

Verfolge FENGYUN 1C DEB in Echtzeit mit AllMySat

Download on the App Store